Regional Weather Roundup
Issued by NWS

Home | Current Version | Previous Version | Text Only | Print | Product List | Glossary Off
Versions: 1 2 3 4 5 6 7 8 9 10 11 12 13 14 15 16 17 18 19 20 21 22 23 24 25 26 27 28 29 30 31 32 33 34 35 36 37 38 39 40 41 42 43 44 45 46 47 48 49 50

062
ASUS44 KLIX 070410
RWRLA
LOUISIANA WEATHER ROUNDUP
NATIONAL WEATHER SERVICE NEW ORLEANS LA
1000 PM CST FRI MAR 06 2015

NOTE: "FAIR" INDICATES FEW OR NO CLOUDS BELOW 12,000 FEET WITH NO
      SIGNIFICANT WEATHER AND/OR OBSTRUCTIONS TO VISIBILITY.
      SKY/WX - SKY CONDITION AND SIGNIFICANT WEATHER.
      TMP - AIR TEMPERATURE.    DP   - DEWPOINT TEMPERATURE.
      RH  - RELATIVE HUMIDITY.  PRES - PRESSURE.
      HX  - HEAT INDEX.         WCI  - WIND CHILL INDEX.

*  THESE STATIONS ARE NOT NWS OR FAA STATIONS AND ARE NOT UNDER
   NWS QUALITY CONTROL.

LAZ040-048-061>063-065-066-069-070500-
SOUTHEAST LOUISIANA

CITY           SKY/WX    TMP DP  RH WIND       PRES   REMARKS
N.O. AUDUBON     N/A     50  29  44 MISG        N/A
N.O. INTL ARPT CLOUDY    48  24  39 N13       30.47S
N.O. LAKEFRONT MOCLDY    51  25  36 N17       30.48S
SLIDELL        PTCLDY    36  32  85 CALM      30.48R
BATON ROUGE    CLEAR     40  22  48 N5        30.50R
BOOTHVILLE     MOCLDY    50  34  54 N8        30.44S
BELLE CHASSE   CLOUDY    49  21  33 NE6       30.45
BOGALUSA*        N/A     38  26  61 N7        30.50S WCI  32
GALLIANO*      MOCLDY    49  31  49 MISG      30.46S
NEW ROADS*     FAIR      38  24  55 N6        30.51S WCI  34
GONZALES*      FAIR      44  21  40 N6        30.48F
HAMMOND*       PTCLDY    39  21  48 CALM      30.51R
HOUMA*         CLOUDY    43  29  58 N6        30.47R
PORT FOURCHON* CLEAR     46  36  66 N3        30.49R

$$

LAZ041-044-053-054-070500-
SOUTHWEST LOUISIANA

CITY           SKY/WX    TMP DP  RH WIND       PRES   REMARKS
LAKE CHARLES   CLEAR     37  31  78 CALM      30.50R
LAFAYETTE      PTCLDY    39  25  57 NE6       30.50R WCI  35
PATTERSON      CLOUDY    45  25  45 N5        30.49R
SALT POINT       N/A     44  27  51 N3        30.48R
NEW IBERIA     PTCLDY    40  26  57 N7        30.50S
CHENAULT AIRPK CLEAR     38  31  77 CALM      30.51R

$$

LAZ027-028-070500-
CENTRAL LOUISIANA

CITY           SKY/WX    TMP DP  RH WIND       PRES   REMARKS
FORT POLK      PTCLDY    39  21  49 NE6       30.50S WCI  34
ALEXANDRIA INT CLEAR     37  22  54 NE5       30.50S WCI  33
ALEXANDRIA     CLEAR     30  24  78 CALM      30.52S

$$

LAZ001-002-070500-
NORTHWEST LOUISIANA

CITY           SKY/WX    TMP DP  RH WIND       PRES   REMARKS
SHREVEPORT     PTCLDY    36  27  69 CALM      30.50S
BARKSDALE AFB  CLEAR     35  24  63 SE2       30.51R
DTN SHREVEPORT CLEAR     36  24  62 CALM      30.51R

$$

LAZ014-016-070500-
NORTHEAST LOUISIANA

CITY           SKY/WX    TMP DP  RH WIND       PRES   REMARKS
MONROE         CLEAR     32  28  85 CALM      30.54S
TALLULAH       CLEAR     29  25  85 CALM      30.53S

$$




USA.gov is the U.S. government's official web portal to all federal, state and local government web resources and services.